"Sample Date","Sample Time","Sensor Name","Sample Value","Units","Flow Rate","Sample Interval","Sample Volume","Laser Status","Number Channels","Micron Size 0","Counts/Channel 0","Micron Size 1","Counts/Channel 1","Micron Size 2","Counts/Channel 2","Micron Size 3","Counts/Channel 3","Micron Size 4","Counts/Channel 4","Micron Size 5","Counts/Channel 5","Micron Size 6","Counts/Channel 6","Micron Size 7","Counts/Channel 7","Micron Size 8","Counts/Channel 8","Micron Size 9","Counts/Channel 9","Micron Size 10","Counts/Channel 10","Micron Size 11","Counts/Channel 11","Micron Size 12","Counts/Channel 12","Micron Size 13","Counts/Channel 13","Micron Size 14","Counts/Channel 14","Micron Size 15","Counts/Channel 15","Micron Size 16","Counts/Channel 16","Micron Size 17","Counts/Channel 17","Micron Size 18","Counts/Channel 18","Micron Size 19","Counts/Channel 19","Micron Size 20","Counts/Channel 20","Micron Size 21","Counts/Channel 21","Micron Size 22","Counts/Channel 22","Micron Size 23","Counts/Channel 23","Micron Size 24","Counts/Channel 24","Micron Size 25","Counts/Channel 25","Micron Size 26","Counts/Channel 26","Micron Size 27","Counts/Channel 27","Micron Size 28","Counts/Channel 28","Micron Size 29","Counts/Channel 29","Micron Size 30","Counts/Channel 30","Micron Size 31","Counts/Channel 31"
"07/02/06","13:00:02","AMMA06",68599.000,"cc",28316.088,6.00,2831.609,1,6,0.100,36906.000,0.200,24965.000,0.300,4260.000,0.500,1493.000,1.000,975.000,5.000,0
"07/02/06","13:00:08","AMMA06",68393.000,"cc",28277.397,6.00,2827.740,1,6,0.100,36817.000,0.200,24765.000,0.300,4364.000,0.500,1452.000,1.000,994.000,5.000,1.000
"07/02/06","13:00:14","AMMA06",68247.000,"cc",28354.082,6.00,2835.408,1,6,0.100,37021.000,0.200,24569.000,0.300,4211.000,0.500,1475.000,1.000,971.000,5.000,0
"07/02/06","13:00:20","AMMA06",68172.000,"cc",28301.387,6.00,2830.139,1,6,0.100,36866.000,0.200,24699.000,0.300,4257.000,0.500,1397.000,1.000,953.000,5.000,0
"07/02/06","13:00:26","AMMA06",68519.000,"cc",28333.553,6.00,2833.356,1,6,0.100,37208.000,0.200,24599.000,0.300,4328.000,0.500,1443.000,1.000,939.000,5.000,2.000
"07/02/06","13:00:32","AMMA06",68317.000,"cc",28280.850,6.00,2828.085,1,6,0.100,36953.000,0.200,24637.000,0.300,4283.000,0.500,1525.000,1.000,919.000,5.000,0
"07/02/06","13:00:38","AMMA06",68598.000,"cc",28320.400,6.00,2832.040,1,6,0.100,37267.000,0.200,24660.000,0.300,4253.000,0.500,1461.000,1.000,957.000,5.000,0
"07/02/06","13:00:44","AMMA06",68258.000,"cc",28326.830,6.00,2832.683,1,6,0.100,36937.000,0.200,24682.000,0.300,4177.000,0.500,1497.000,1.000,964.000,5.000,1.000
"07/02/06","13:00:50","AMMA06",68297.000,"cc",28326.412,6.00,2832.641,1,6,0.100,36969.000,0.200,24703.000,0.300,4236.000,0.500,1455.000,1.000,934.000,5.000,0
"07/02/06","13:00:56","AMMA06",68321.000,"cc",28342.104,6.00,2834.210,1,6,0.100,37130.000,0.200,24742.000,0.300,4079.000,0.500,1422.000,1.000,948.000,5.000,0
"07/02/06","13:01:02","AMMA06",67831.000,"cc",28287.557,6.00,2828.756,1,6,0.100,37000.000,0.200,24350.000,0.300,4091.000,0.500,1477.000,1.000,912.000,5.000,1.000
"07/02/06","13:01:08","AMMA06",68094.000,"cc",28335.895,6.00,2833.590,1,6,0.100,37423.000,0.200,24207.000,0.300,4044.000,0.500,1442.000,1.000,978.000,5.000,0
"07/02/06","13:01:14","AMMA06",68014.000,"cc",28294.623,6.00,2829.462,1,6,0.100,37154.000,0.200,24102.000,0.300,4292.000,0.500,1439.000,1.000,1027.000,5.000,0
"07/02/06","13:01:20","AMMA06",67862.000,"cc",28288.932,6.00,2828.893,1,6,0.100,37113.000,0.200,24200.000,0.300,4172.000,0.500,1383.000,1.000,994.000,5.000,0
"07/02/06","13:01:26","AMMA06",67943.000,"cc",28359.262,6.00,2835.926,1,6,0.100,37034.000,0.200,24402.000,0.300,4126.000,0.500,1362.000,1.000,1017.000,5.000,2.000
"07/02/06","13:01:32","AMMA06",68339.000,"cc",28333.828,6.00,2833.383,1,6,0.100,37170.000,0.200,24646.000,0.300,4068.000,0.500,1445.000,1.000,1010.000,5.000,0
"07/02/06","13:01:38","AMMA06",68331.000,"cc",28319.920,6.00,2831.992,1,6,0.100,37207.000,0.200,24547.000,0.300,4169.000,0.500,1459.000,1.000,949.000,5.000,0
"07/02/06","13:01:44","AMMA06",67817.000,"cc",28312.197,6.00,2831.220,1,6,0.100,36807.000,0.200,24532.000,0.300,4065.000,0.500,1448.000,1.000,964.000,5.000,1.000
"07/02/06","13:01:50","AMMA06",68591.000,"cc",28306.422,6.00,2830.642,1,6,0.100,37508.000,0.200,24527.000,0.300,4141.000,0.500,1449.000,1.000,966.000,5.000,0
"07/02/06","13:01:56","AMMA06",68154.000,"cc",28357.940,6.00,2835.794,1,6,0.100,37134.000,0.200,24402.000,0.300,4150.000,0.500,1469.000,1.000,997.000,5.000,2.000
"07/02/06","13:02:02","AMMA06",68378.000,"cc",28303.834,6.00,2830.384,1,6,0.100,37410.000,0.200,24372.000,0.300,4231.000,0.500,1414.000,1.000,950.000,5.000,1.000
"07/02/06","13:02:08","AMMA06",68543.000,"cc",28297.104,6.00,2829.710,1,6,0.100,37310.000,0.200,24627.000,0.300,4109.000,0.500,1502.000,1.000,994.000,5.000,1.000
"07/02/06","13:02:14","AMMA06",67809.000,"cc",28322.049,6.00,2832.205,1,6,0.100,37323.000,0.200,23991.000,0.300,4043.000,0.500,1499.000,1.000,953.000,5.000,0
"07/02/06","13:02:20","AMMA06",67966.000,"cc",28290.576,6.00,2829.058,1,6,0.100,37114.000,0.200,24355.000,0.300,4158.000,0.500,1423.000,1.000,916.000,5.000,0
"07/02/06","13:02:26","AMMA06",68000.000,"cc",28314.828,6.00,2831.483,1,6,0.100,37008.000,0.200,24448.000,0.300,4214.000,0.500,1395.000,1.000,933.000,5.000,2.000
"07/02/06","13:02:32","AMMA06",68362.000,"cc",28312.940,6.00,2831.294,1,6,0.100,37652.000,0.200,24246.000,0.300,4056.000,0.500,1433.000,1.000,974.000,5.000,1.000
"07/02/06","13:02:38","AMMA06",67981.000,"cc",28357.164,6.00,2835.717,1,6,0.100,37492.000,0.200,23999.000,0.300,4078.000,0.500,1454.000,1.000,957.000,5.000,1.000
"07/02/06","13:02:44","AMMA06",68020.000,"cc",28327.049,6.00,2832.705,1,6,0.100,37406.000,0.200,24074.000,0.300,4095.000,0.500,1500.000,1.000,945.000,5.000,0
"07/02/06","13:02:50","AMMA06",68328.000,"cc",28281.541,6.00,2828.154,1,6,0.100,37449.000,0.200,24374.000,0.300,4132.000,0.500,1454.000,1.000,917.000,5.000,2.000
"07/02/06","13:02:56","AMMA06",67779.000,"cc",28347.242,6.00,2834.724,1,6,0.100,37179.000,0.200,24235.000,0.300,4008.000,0.500,1451.000,1.000,906.000,5.000,0
"07/02/06","13:03:02","AMMA06",68305.000,"cc",28308.272,6.00,2830.827,1,6,0.100,37139.000,0.200,24527.000,0.300,4204.000,0.500,1449.000,1.000,986.000,5.000,0
"07/02/06","13:03:08","AMMA06",68360.000,"cc",28318.688,6.00,2831.869,1,6,0.100,37550.000,0.200,24311.000,0.300,4054.000,0.500,1512.000,1.000,931.000,5.000,2.000
"07/02/06","13:03:14","AMMA06",67786.000,"cc",28326.148,6.00,2832.615,1,6,0.100,37187.000,0.200,24145.000,0.300,4088.000,0.500,1447.000,1.000,919.000,5.000,0
"07/02/06","13:03:20","AMMA06",68205.000,"cc",28316.881,6.00,2831.688,1,6,0.100,37492.000,0.200,24266.000,0.300,4081.000,0.500,1433.000,1.000,933.000,5.000,0
"07/02/06","13:03:26","AMMA06",68617.000,"cc",28337.231,6.00,2833.723,1,6,0.100,37668.000,0.200,24571.000,0.300,4008.000,0.500,1435.000,1.000,934.000,5.000,1.000
"07/02/06","13:03:32","AMMA06",67888.000,"cc",28328.691,6.00,2832.869,1,6,0.100,37419.000,0.200,24115.000,0.300,3950.000,0.500,1418.000,1.000,984.000,5.000,2.000
"07/02/06","13:03:38","AMMA06",67745.000,"cc",28264.234,6.00,2826.424,1,6,0.100,37288.000,0.200,23966.000,0.300,4058.000,0.500,1490.000,1.000,943.000,5.000,0
"07/02/06","13:03:44","AMMA06",68223.000,"cc",28321.258,6.00,2832.126,1,6,0.100,37606.000,0.200,24145.000,0.300,4081.000,0.500,1452.000,1.000,937.000,5.000,2.000
"07/02/06","13:03:50","AMMA06",68453.000,"cc",28333.941,6.00,2833.394,1,6,0.100,37771.000,0.200,24246.000,0.300,4050.000,0.500,1441.000,1.000,945.000,5.000,0
"07/02/06","13:03:56","AMMA06",68215.000,"cc",28310.938,6.00,2831.094,1,6,0.100,37408.000,0.200,24201.000,0.300,4135.000,0.500,1454.000,1.000,1016.000,5.000,1.000
"07/02/06","13:04:02","AMMA06",68218.000,"cc",28300.434,6.00,2830.044,1,6,0.100,37431.000,0.200,24362.000,0.300,4045.000,0.500,1404.000,1.000,975.000,5.000,1.000
"07/02/06","13:04:08","AMMA06",68298.000,"cc",28335.486,6.00,2833.549,1,6,0.100,37490.000,0.200,24268.000,0.300,4113.000,0.500,1484.000,1.000,943.000,5.000,0
"07/02/06","13:04:14","AMMA06",68143.000,"cc",28257.910,6.00,2825.791,1,6,0.100,37322.000,0.200,24244.000,0.300,4167.000,0.500,1439.000,1.000,971.000,5.000,0
"07/02/06","13:04:20","AMMA06",68655.000,"cc",28346.285,6.00,2834.629,1,6,0.100,37729.000,0.200,24351.000,0.300,4194.000,0.500,1427.000,1.000,954.000,5.000,0
"07/02/06","13:04:26","AMMA06",68136.000,"cc",28281.709,6.00,2828.171,1,6,0.100,37345.000,0.200,24381.000,0.300,4084.000,0.500,1401.000,1.000,924.000,5.000,1.000
"07/02/06","13:04:32","AMMA06",68412.000,"cc",28334.037,6.00,2833.404,1,6,0.100,37470.000,0.200,24447.000,0.300,4114.000,0.500,1499.000,1.000,882.000,5.000,0
"07/02/06","13:04:38","AMMA06",68400.000,"cc",28333.188,6.00,2833.319,1,6,0.100,37384.000,0.200,24468.000,0.300,4166.000,0.500,1444.000,1.000,938.000,5.000,0
"07/02/06","13:04:44","AMMA06",68431.000,"cc",28351.299,6.00,2835.130,1,6,0.100,37490.000,0.200,24409.000,0.300,4091.000,0.500,1488.000,1.000,953.000,5.000,0
"07/02/06","13:04:50","AMMA06",67778.000,"cc",28319.570,6.00,2831.957,1,6,0.100,36783.000,0.200,24484.000,0.300,4099.000,0.500,1455.000,1.000,957.000,5.000,0
"07/02/06","13:04:56","AMMA06",67665.000,"cc",28300.232,6.00,2830.023,1,6,0.100,37075.000,0.200,24154.000,0.300,4083.000,0.500,1450.000,1.000,902.000,5.000,1.000
"07/02/06","13:05:02","AMMA06",68294.000,"cc",28353.328,6.00,2835.333,1,6,0.100,37272.000,0.200,24495.000,0.300,4138.000,0.500,1463.000,1.000,924.000,5.000,2.000
"07/02/06","13:05:08","AMMA06",67725.000,"cc",28313.512,6.00,2831.351,1,6,0.100,36963.000,0.200,24324.000,0.300,4106.000,0.500,1360.000,1.000,972.000,5.000,0
"07/02/06","13:05:14","AMMA06",67939.000,"cc",28334.541,6.00,2833.454,1,6,0.100,37136.000,0.200,24380.000,0.300,4062.000,0.500,1400.000,1.000,960.000,5.000,1.000
"07/02/06","13:05:20","AMMA06",67828.000,"cc",28351.914,6.00,2835.192,1,6,0.100,37036.000,0.200,24270.000,0.300,4114.000,0.500,1478.000,1.000,929.000,5.000,1.000
"07/02/06","13:05:26","AMMA06",68100.000,"cc",28276.035,6.00,2827.604,1,6,0.100,37047.000,0.200,24548.000,0.300,4079.000,0.500,1443.000,1.000,983.000,5.000,0
"07/02/06","13:05:32","AMMA06",68537.000,"cc",28276.992,6.00,2827.700,1,6,0.100,37527.000,0.200,24464.000,0.300,4116.000,0.500,1481.000,1.000,949.000,5.000,0
"07/02/06","13:05:38","AMMA06",68416.000,"cc",28345.059,6.00,2834.506,1,6,0.100,37368.000,0.200,24414.000,0.300,4189.000,0.500,1473.000,1.000,972.000,5.000,0
"07/02/06","13:05:44","AMMA06",67747.000,"cc",28345.398,6.00,2834.540,1,6,0.100,37181.000,0.200,24103.000,0.300,4065.000,0.500,1421.000,1.000,977.000,5.000,0
"07/02/06","13:05:50","AMMA06",67797.000,"cc",28318.912,6.00,2831.891,1,6,0.100,36905.000,0.200,24345.000,0.300,4140.000,0.500,1434.000,1.000,972.000,5.000,1.000
"07/02/06","13:05:56","AMMA06",68215.000,"cc",28346.713,6.00,2834.671,1,6,0.100,37294.000,0.200,24435.000,0.300,4118.000,0.500,1418.000,1.000,949.000,5.000,1.000
"07/02/06","13:06:02","AMMA06",67826.000,"cc",28339.160,6.00,2833.916,1,6,0.100,36926.000,0.200,24335.000,0.300,4170.000,0.500,1447.000,1.000,948.000,5.000,0
"07/02/06","13:06:08","AMMA06",68376.000,"cc",28292.957,6.00,2829.296,1,6,0.100,37217.000,0.200,24491.000,0.300,4157.000,0.500,1520.000,1.000,991.000,5.000,0
"07/02/06","13:06:14","AMMA06",68226.000,"cc",28276.201,6.00,2827.620,1,6,0.100,37007.000,0.200,24617.000,0.300,4219.000,0.500,1381.000,1.000,1000.000,5.000,2.000
"07/02/06","13:06:20","AMMA06",67969.000,"cc",28298.973,6.00,2829.898,1,6,0.100,36775.000,0.200,24642.000,0.300,4141.000,0.500,1438.000,1.000,971.000,5.000,2.000
"07/02/06","13:06:26","AMMA06",68369.000,"cc",28315.615,6.00,2831.562,1,6,0.100,37250.000,0.200,24544.000,0.300,4187.000,0.500,1429.000,1.000,959.000,5.000,0
"07/02/06","13:06:32","AMMA06",68192.000,"cc",28387.272,6.00,2838.727,1,6,0.100,37268.000,0.200,24316.000,0.300,4221.000,0.500,1459.000,1.000,927.000,5.000,1.000
"07/02/06","13:06:38","AMMA06",68068.000,"cc",28323.818,6.00,2832.382,1,6,0.100,37017.000,0.200,24421.000,0.300,4144.000,0.500,1511.000,1.000,975.000,5.000,0
"07/02/06","13:06:44","AMMA06",68604.000,"cc",28301.375,6.00,2830.138,1,6,0.100,37305.000,0.200,24563.000,0.300,4352.000,0.500,1425.000,1.000,959.000,5.000,0
"07/02/06","13:06:50","AMMA06",68060.000,"cc",28308.379,6.00,2830.838,1,6,0.100,37187.000,0.200,24449.000,0.300,4070.000,0.500,1411.000,1.000,942.000,5.000,1.000
"07/02/06","13:06:56","AMMA06",68347.000,"cc",28289.715,6.00,2828.972,1,6,0.100,37061.000,0.200,24670.000,0.300,4191.000,0.500,1501.000,1.000,923.000,5.000,1.000
"07/02/06","13:07:02","AMMA06",67725.000,"cc",28285.145,6.00,2828.515,1,6,0.100,36629.000,0.200,24628.000,0.300,4182.000,0.500,1351.000,1.000,934.000,5.000,1.000
"07/02/06","13:07:08","AMMA06",68319.000,"cc",28310.234,6.00,2831.024,1,6,0.100,37208.000,0.200,24581.000,0.300,4147.000,0.500,1478.000,1.000,905.000,5.000,0
"07/02/06","13:07:14","AMMA06",68477.000,"cc",28364.238,6.00,2836.424,1,6,0.100,37155.000,0.200,24714.000,0.300,4220.000,0.500,1471.000,1.000,916.000,5.000,1.000
"07/02/06","13:07:20","AMMA06",67789.000,"cc",28309.789,6.00,2830.979,1,6,0.100,37058.000,0.200,24140.000,0.300,4169.000,0.500,1444.000,1.000,977.000,5.000,1.000
"07/02/06","13:07:26","AMMA06",68400.000,"cc",28323.162,6.00,2832.316,1,6,0.100,37161.000,0.200,24686.000,0.300,4255.000,0.500,1354.000,1.000,944.000,5.000,0
"07/02/06","13:07:32","AMMA06",68397.000,"cc",28307.625,6.00,2830.763,1,6,0.100,37375.000,0.200,24569.000,0.300,4095.000,0.500,1416.000,1.000,941.000,5.000,1.000
"07/02/06","13:07:38","AMMA06",68009.000,"cc",28348.037,6.00,2834.804,1,6,0.100,36820.000,0.200,24530.000,0.300,4219.000,0.500,1422.000,1.000,1018.000,5.000,0
"07/02/06","13:07:44","AMMA06",67953.000,"cc",28325.816,6.00,2832.582,1,6,0.100,36814.000,0.200,24585.000,0.300,4099.000,0.500,1487.000,1.000,967.000,5.000,1.000
"07/02/06","13:07:50","AMMA06",68272.000,"cc",28322.686,6.00,2832.269,1,6,0.100,36757.000,0.200,24859.000,0.300,4216.000,0.500,1444.000,1.000,995.000,5.000,1.000
"07/02/06","13:07:56","AMMA06",67980.000,"cc",28373.133,6.00,2837.314,1,6,0.100,36962.000,0.200,24458.000,0.300,4173.000,0.500,1460.000,1.000,927.000,5.000,0
"07/02/06","13:08:02","AMMA06",68431.000,"cc",28253.061,6.00,2825.306,1,6,0.100,36928.000,0.200,24876.000,0.300,4220.000,0.500,1433.000,1.000,973.000,5.000,1.000
"07/02/06","13:08:08","AMMA06",68152.000,"cc",28293.357,6.00,2829.336,1,6,0.100,36735.000,0.200,24733.000,0.300,4219.000,0.500,1499.000,1.000,964.000,5.000,2.000
"07/02/06","13:08:14","AMMA06",67993.000,"cc",28308.699,6.00,2830.870,1,6,0.100,36822.000,0.200,24575.000,0.300,4210.000,0.500,1461.000,1.000,925.000,5.000,0
"07/02/06","13:08:20","AMMA06",68275.000,"cc",28326.891,6.00,2832.689,1,6,0.100,36945.000,0.200,24672.000,0.300,4282.000,0.500,1426.000,1.000,950.000,5.000,0
"07/02/06","13:08:26","AMMA06",67939.000,"cc",28363.805,6.00,2836.381,1,6,0.100,36582.000,0.200,24706.000,0.300,4186.000,0.500,1491.000,1.000,972.000,5.000,2.000
"07/02/06","13:08:32","AMMA06",68266.000,"cc",28281.287,6.00,2828.129,1,6,0.100,37098.000,0.200,24564.000,0.300,4186.000,0.500,1436.000,1.000,981.000,5.000,1.000
"07/02/06","13:08:38","AMMA06",68039.000,"cc",28328.008,6.00,2832.801,1,6,0.100,36697.000,0.200,24779.000,0.300,4182.000,0.500,1469.000,1.000,912.000,5.000,0
"07/02/06","13:08:44","AMMA06",67923.000,"cc",28290.945,6.00,2829.095,1,6,0.100,36625.000,0.200,24674.000,0.300,4210.000,0.500,1454.000,1.000,960.000,5.000,0
"07/02/06","13:08:50","AMMA06",68312.000,"cc",28288.949,6.00,2828.895,1,6,0.100,37242.000,0.200,24436.000,0.300,4226.000,0.500,1491.000,1.000,917.000,5.000,0
"07/02/06","13:08:56","AMMA06",68000.000,"cc",28322.811,6.00,2832.281,1,6,0.100,36862.000,0.200,24575.000,0.300,4106.000,0.500,1500.000,1.000,957.000,5.000,0
"07/02/06","13:09:02","AMMA06",68634.000,"cc",28312.772,6.00,2831.277,1,6,0.100,37066.000,0.200,24777.000,0.300,4331.000,0.500,1558.000,1.000,901.000,5.000,1.000
"07/02/06","13:09:08","AMMA06",68182.000,"cc",28321.393,6.00,2832.139,1,6,0.100,36793.000,0.200,24798.000,0.300,4166.000,0.500,1425.000,1.000,1000.000,5.000,0
"07/02/06","13:09:14","AMMA06",68074.000,"cc",28319.965,6.00,2831.997,1,6,0.100,36961.000,0.200,24675.000,0.300,4085.000,0.500,1433.000,1.000,920.000,5.000,0
"07/02/06","13:09:20","AMMA06",68549.000,"cc",28336.305,6.00,2833.631,1,6,0.100,37414.000,0.200,24501.000,0.300,4154.000,0.500,1527.000,1.000,951.000,5.000,2.000
"07/02/06","13:09:26","AMMA06",68771.000,"cc",28284.297,6.00,2828.430,1,6,0.100,37396.000,0.200,24707.000,0.300,4303.000,0.500,1417.000,1.000,948.000,5.000,0
"07/02/06","13:09:32","AMMA06",67600.000,"cc",28381.182,6.00,2838.118,1,6,0.100,36818.000,0.200,24247.000,0.300,4185.000,0.500,1394.000,1.000,954.000,5.000,2.000
"07/02/06","13:09:38","AMMA06",68306.000,"cc",28328.375,6.00,2832.838,1,6,0.100,37071.000,0.200,24650.000,0.300,4194.000,0.500,1428.000,1.000,963.000,5.000,0
"07/02/06","13:09:44","AMMA06",68322.000,"cc",28260.600,6.00,2826.060,1,6,0.100,37355.000,0.200,24466.000,0.300,4066.000,0.500,1469.000,1.000,966.000,5.000,0
"07/02/06","13:09:50","AMMA06",68632.000,"cc",28312.217,6.00,2831.222,1,6,0.100,37435.000,0.200,24768.000,0.300,4114.000,0.500,1430.000,1.000,885.000,5.000,0
"07/02/06","13:09:56","AMMA06",68122.000,"cc",28337.791,6.00,2833.779,1,6,0.100,37093.000,0.200,24455.000,0.300,4175.000,0.500,1456.000,1.000,943.000,5.000,0
"07/02/06","13:10:02","AMMA06",67906.000,"cc",28331.236,6.00,2833.124,1,6,0.100,37158.000,0.200,24397.000,0.300,4033.000,0.500,1416.000,1.000,902.000,5.000,0
"07/02/06","13:10:08","AMMA06",67567.000,"cc",28324.844,6.00,2832.485,1,6,0.100,36977.000,0.200,24146.000,0.300,4108.000,0.500,1399.000,1.000,935.000,5.000,2.000
"07/02/06","13:10:14","AMMA06",68341.000,"cc",28268.150,6.00,2826.815,1,6,0.100,37209.000,0.200,24443.000,0.300,4213.000,0.500,1517.000,1.000,958.000,5.000,1.000
"07/02/06","13:10:20","AMMA06",67893.000,"cc",28334.043,6.00,2833.405,1,6,0.100,37121.000,0.200,24178.000,0.300,4106.000,0.500,1515.000,1.000,973.000,5.000,0
"07/02/06","13:10:26","AMMA06",68357.000,"cc",28325.330,6.00,2832.533,1,6,0.100,37683.000,0.200,24219.000,0.300,4059.000,0.500,1459.000,1.000,937.000,5.000,0
"07/02/06","13:10:32","AMMA06",68008.000,"cc",28316.238,6.00,2831.624,1,6,0.100,37306.000,0.200,24158.000,0.300,4072.000,0.500,1503.000,1.000,969.000,5.000,0
"07/02/06","13:10:38","AMMA06",67997.000,"cc",28320.201,6.00,2832.020,1,6,0.100,37445.000,0.200,24089.000,0.300,4069.000,0.500,1423.000,1.000,971.000,5.000,0
"07/02/06","13:10:44","AMMA06",68004.000,"cc",28268.025,6.00,2826.803,1,6,0.100,37668.000,0.200,24101.000,0.300,3844.000,0.500,1417.000,1.000,974.000,5.000,0
"07/02/06","13:10:50","AMMA06",67958.000,"cc",28330.576,6.00,2833.058,1,6,0.100,37433.000,0.200,24021.000,0.300,4030.000,0.500,1464.000,1.000,1008.000,5.000,2.000
"07/02/06","13:10:56","AMMA06",68013.000,"cc",28322.361,6.00,2832.236,1,6,0.100,37336.000,0.200,24283.000,0.300,3982.000,0.500,1490.000,1.000,921.000,5.000,1.000
"07/02/06","13:11:02","AMMA06",67784.000,"cc",28315.877,6.00,2831.588,1,6,0.100,37562.000,0.200,23818.000,0.300,3953.000,0.500,1497.000,1.000,954.000,5.000,0
"07/02/06","13:11:08","AMMA06",67563.000,"cc",28324.902,6.00,2832.491,1,6,0.100,37490.000,0.200,23691.000,0.300,3935.000,0.500,1467.000,1.000,980.000,5.000,0
"07/02/06","13:11:14","AMMA06",67393.000,"cc",28297.645,6.00,2829.765,1,6,0.100,37207.000,0.200,23899.000,0.300,3914.000,0.500,1432.000,1.000,939.000,5.000,2.000
"07/02/06","13:11:20","AMMA06",68073.000,"cc",28325.020,6.00,2832.502,1,6,0.100,37490.000,0.200,24260.000,0.300,3929.000,0.500,1419.000,1.000,975.000,5.000,0
"07/02/06","13:11:26","AMMA06",67734.000,"cc",28323.002,6.00,2832.300,1,6,0.100,37384.000,0.200,24052.000,0.300,3916.000,0.500,1433.000,1.000,948.000,5.000,1.000
"07/02/06","13:11:32","AMMA06",68360.000,"cc",28286.484,6.00,2828.649,1,6,0.100,37759.000,0.200,24079.000,0.300,4146.000,0.500,1458.000,1.000,917.000,5.000,1.000
"07/02/06","13:11:38","AMMA06",67798.000,"cc",28321.729,6.00,2832.173,1,6,0.100,37302.000,0.200,24084.000,0.300,4011.000,0.500,1428.000,1.000,973.000,5.000,0
"07/02/06","13:11:44","AMMA06",67819.000,"cc",28319.815,6.00,2831.982,1,6,0.100,37469.000,0.200,23989.000,0.300,3997.000,0.500,1451.000,1.000,912.000,5.000,1.000
"07/02/06","13:11:50","AMMA06",68167.000,"cc",28341.924,6.00,2834.193,1,6,0.100,37800.000,0.200,23951.000,0.300,3950.000,0.500,1494.000,1.000,971.000,5.000,1.000
"07/02/06","13:11:56","AMMA06",67896.000,"cc",28330.688,6.00,2833.069,1,6,0.100,37577.000,0.200,24000.000,0.300,3895.000,0.500,1474.000,1.000,949.000,5.000,1.000
"07/02/06","13:12:02","AMMA06",67713.000,"cc",28323.764,6.00,2832.377,1,6,0.100,37496.000,0.200,23822.000,0.300,4015.000,0.500,1440.000,1.000,939.000,5.000,1.000
"07/02/06","13:12:08","AMMA06",68006.000,"cc",28353.072,6.00,2835.307,1,6,0.100,37900.000,0.200,23833.000,0.300,3890.000,0.500,1463.000,1.000,918.000,5.000,2.000
"07/02/06","13:12:14","AMMA06",67686.000,"cc",28301.709,6.00,2830.171,1,6,0.100,37224.000,0.200,23904.000,0.300,4143.000,0.500,1452.000,1.000,963.000,5.000,0
"07/02/06","13:12:20","AMMA06",67792.000,"cc",28279.584,6.00,2827.959,1,6,0.100,37725.000,0.200,23851.000,0.300,3850.000,0.500,1411.000,1.000,953.000,5.000,2.000
"07/02/06","13:12:26","AMMA06",67903.000,"cc",28322.264,6.00,2832.227,1,6,0.100,37788.000,0.200,23846.000,0.300,3933.000,0.500,1379.000,1.000,957.000,5.000,0
"07/02/06","13:12:32","AMMA06",67484.000,"cc",28341.250,6.00,2834.125,1,6,0.100,37185.000,0.200,23938.000,0.300,3940.000,0.500,1484.000,1.000,936.000,5.000,1.000
"07/02/06","13:12:38","AMMA06",67955.000,"cc",28286.072,6.00,2828.607,1,6,0.100,37645.000,0.200,23898.000,0.300,3973.000,0.500,1471.000,1.000,967.000,5.000,1.000
"07/02/06","13:12:44","AMMA06",67639.000,"cc",28305.818,6.00,2830.582,1,6,0.100,37374.000,0.200,23933.000,0.300,3886.000,0.500,1459.000,1.000,986.000,5.000,1.000
"07/02/06","13:12:50","AMMA06",68250.000,"cc",28336.445,6.00,2833.645,1,6,0.100,37894.000,0.200,23993.000,0.300,3959.000,0.500,1479.000,1.000,925.000,5.000,0
"07/02/06","13:12:56","AMMA06",67975.000,"cc",28327.924,6.00,2832.793,1,6,0.100,37496.000,0.200,24165.000,0.300,3945.000,0.500,1424.000,1.000,945.000,5.000,0
"07/02/06","13:13:02","AMMA06",67544.000,"cc",28301.928,6.00,2830.193,1,6,0.100,37356.000,0.200,23943.000,0.300,3923.000,0.500,1419.000,1.000,903.000,5.000,0
"07/02/06","13:13:08","AMMA06",68078.000,"cc",28278.666,6.00,2827.867,1,6,0.100,37722.000,0.200,23929.000,0.300,4001.000,0.500,1465.000,1.000,960.000,5.000,1.000
"07/02/06","13:13:14","AMMA06",68125.000,"cc",28344.391,6.00,2834.439,1,6,0.100,37265.000,0.200,24511.000,0.300,3950.000,0.500,1470.000,1.000,929.000,5.000,0
"07/02/06","13:13:20","AMMA06",67790.000,"cc",28288.959,6.00,2828.896,1,6,0.100,37292.000,0.200,23977.000,0.300,4120.000,0.500,1436.000,1.000,963.000,5.000,2.000
"07/02/06","13:13:26","AMMA06",68104.000,"cc",28356.859,6.00,2835.686,1,6,0.100,37578.000,0.200,24135.000,0.300,3918.000,0.500,1538.000,1.000,935.000,5.000,0
"07/02/06","13:13:32","AMMA06",68099.000,"cc",28325.482,6.00,2832.548,1,6,0.100,37217.000,0.200,24519.000,0.300,3943.000,0.500,1504.000,1.000,915.000,5.000,1.000
"07/02/06","13:13:38","AMMA06",67860.000,"cc",28300.180,6.00,2830.018,1,6,0.100,37360.000,0.200,23982.000,0.300,4061.000,0.500,1465.000,1.000,992.000,5.000,0
"07/02/06","13:13:44","AMMA06",68366.000,"cc",28286.924,6.00,2828.693,1,6,0.100,37514.000,0.200,24382.000,0.300,4023.000,0.500,1490.000,1.000,956.000,5.000,1.000
"07/02/06","13:13:50","AMMA06",67848.000,"cc",28346.898,6.00,2834.690,1,6,0.100,37196.000,0.200,24213.000,0.300,4020.000,0.500,1463.000,1.000,954.000,5.000,2.000
"07/02/06","13:13:56","AMMA06",68221.000,"cc",28311.365,6.00,2831.137,1,6,0.100,37243.000,0.200,24457.000,0.300,4039.000,0.500,1513.000,1.000,969.000,5.000,0
"07/02/06","13:14:02","AMMA06",67826.000,"cc",28319.033,6.00,2831.904,1,6,0.100,37237.000,0.200,24176.000,0.300,4048.000,0.500,1435.000,1.000,930.000,5.000,0